Regional Weather Roundup
Issued by NWS Sioux Falls, SD

Home | Current Version | Previous Version | Graphics & Text | Print | Product List | Glossary On
Versions: 1 2 3 4 5 6 7 8 9 10 11 12 13 14 15 16 17 18 19 20 21 22 23 24 25 26 27 28 29 30 31 32 33 34 35 36 37 38 39 40 41 42 43 44 45 46 47 48 49 50
000
ASUS43 KFSD 010702
RWRFSD

WEATHER ROUNDUP FOR SE SOUTH DAKOTA/SW MINNESOTA/NW IOWA
NATIONAL WEATHER SERVICE SIOUX FALLS SD
200 AM CDT TUE SEP 01 2015

NOTE: "FAIR" INDICATES FEW OR NO CLOUDS BELOW 12,000 FEET WITH NO
SIGNIFICANT WEATHER AND OR OBSTRUCTIONS TO VISIBILITY.


SDZ038>040-050-052>070-010800-
SOUTHEAST SOUTH DAKOTA

CITY           SKY/WX    TMP DP  RH WIND       PRES   REMARKS
BROOKINGS      CLOUDY    70  66  88 SE6       29.92F
CHAMBERLAIN    NOT AVBL
HURON          MOCLDY    66  64  93 NE6       29.88F
MADISON        FAIR      68  68 100 S6        29.92S
MITCHELL       PTCLDY    68  65  90 CALM      29.89S
SIOUX FALLS    MOCLDY    72  67  84 CALM      29.91S
WINNER         FAIR      69  62  78 CALM      29.93R
YANKTON        PTCLDY    68  66  94 E6        29.89R
$$

MNZ071-072-080-081-089-090-097-098-010800-
SOUTHWEST MINNESOTA

CITY           SKY/WX    TMP DP  RH WIND       PRES   REMARKS
FAIRMONT       CLEAR     63  57  82 S5        29.94S
JACKSON        CLEAR     68  64  88 S5        29.95S
LUVERNE        PTCLDY    68  64  88 CALM      29.92F FOG
MARSHALL       CLOUDY    72  64  78 SW9       29.91F
MONTEVIDEO     CLOUDY    72  66  83 W7        29.90F
PIPESTONE      MOCLDY    70  66  88 CALM      29.93F
REDWOOD FALLS  MOCLDY    71  67  87 S8        29.90F
TRACY          PTCLDY    71  67  87 SW9       29.91F
WINDOM         CLEAR     70  64  83 CALM      29.94S
WORTHINGTON    CLEAR     68  63  83 S8        29.93F
$$

IAZ001>003-012>014-020>022-031-032-NEZ013-014-SDZ071-010800-
NORTHWEST IOWA

CITY           SKY/WX    TMP DP  RH WIND       PRES   REMARKS
ESTHERVILLE    CLEAR     63  62  97 S5        29.94S
SIOUX CITY     CLEAR     69  64  84 E9        29.90F
SPENCER        CLEAR     65  62  90 SE3       29.94S FOG
$$

ABBREVIATIONS USED IN REMARKS
   TC - TEMPERATURE IN CELSIUS
  WCI - WIND CHILL INDEX
   HX - HEAT INDEX
  VSB - VISIBILITY



USA.gov is the U.S. government's official web portal to all federal, state and local government web resources and services.